Location: Borotín
(49.5055°N, 14.6142°E)
Time: 07:24:31
(UTC+00:00)

USA 229 DEB - Pass Details

Date: 27 May 2022
Orbit: 934 x 1278 km, 63.4° (Epoch: 24 May)

Event Time Altitude Azimuth Distance (km) Brightness Sun altitude
Rises 00:16:57 0° 315° (NW) 3,987 7.0 -17.1°
Reaches altitude 10° 00:19:45 10° 307° (NW) 3,073 6.3 -17.0°
Maximum altitude 00:26:28 38° 243° (WSW) 1,763 4.5 -16.6°
Enters shadow 00:30:40 22° 192° (SSW) 2,411 4.9 -16.3°
